#timestamp,LO_Frequency,Hit,StdDev 
1460185215.5,286046993.7,N
1460185235.3,286046991.8,N
1460185255.2,286046992.6,N
1460185275.9,286046990.8,N
1460185295.7,286046994.6,N
1460185315.6,286046995.8,N
1460185335.4,286046995.4,N
1460185355.2,286046997.5,N
1460185375.0,286046999.9,N
1460185376.0,286046999.9,N
1460185395.8,286047002.8,N
1460185415.6,286047001.7,N
1460185435.4,286047002.3,N
1460185455.3,286046999.8,N
1460185475.1,286046999.8,N
1460185495.8,286046996.6,N
1460185515.7,286047002.0,N
1460185535.5,286047003.8,N
1460185555.3,286047009.9,N
1460185575.2,286047011.1,N
1460185595.9,286047010.6,N
1460185615.7,286047011.1,N
1460185635.6,286047012.3,N
1460185655.4,286047011.1,N
1460185675.2,286047009.6,N
1460185695.0,286047008.6,N
1460185695.9,286047008.6,N
1460185715.8,286047007.3,N
1460185735.6,286047006.3,N
1460185755.4,286047006.4,N
1460185775.3,286047005.6,N
1460185795.1,286047006.2,N
1460185815.8,286047009.1,N
1460185835.7,286047004.9,N
1460185855.5,286047004.7,N
1460185875.3,286047000.2,N
1460185895.2,286046999.8,N
1460185915.9,286047001.2,N
1460185935.7,286047002.0,N
1460185955.6,286047003.1,N
1460185975.4,286047002.1,N
1460185995.2,286047002.1,N
1460186015.0,286046998.6,N
1460186015.9,286046998.6,N
1460186035.8,286046996.5,N
1460186055.6,286046993.3,N
1460186075.4,286046992.6,N
1460186095.3,286046993.7,N
1460186115.1,286046992.0,N
1460186135.8,286046993.5,N
1460186155.7,286046998.0,N
1460186175.5,286046993.7,N
1460186195.3,286046997.5,N
1460186215.2,286046994.9,N
1460186235.9,286046997.8,N
1460186255.7,286046997.6,N
1460186275.6,286046996.5,N
1460186295.4,286046997.8,N
1460186315.2,286047000.1,N
1460186335.0,286046999.5,N
1460186336.0,286046999.5,N
1460186355.8,286046997.4,N
1460186375.6,286047000.5,N
1460186395.4,286047000.3,N
1460186415.3,286047000.1,N
1460186435.1,286047000.5,N
1460186455.8,286047002.4,N
1460186475.7,286047002.3,N
1460186495.5,286047002.2,N
1460186515.3,286047002.5,N
1460186535.2,286047003.9,N
1460186555.9,286047001.7,N
1460186575.7,286047001.7,N
1460186595.6,286047004.1,N
1460186615.4,286047003.1,N
1460186635.2,286047002.8,N
1460186655.0,286047001.5,N
1460186656.0,286047001.5,N
1460186675.8,286047003.8,N
1460186695.6,286047003.7,N
1460186715.4,286047004.0,N
1460186735.3,286047001.9,N
1460186755.1,286047004.1,N
1460186775.8,286047002.8,N
1460186795.7,286047000.6,N
1460186815.5,286047004.1,N
1460186835.3,286047003.2,N
1460186855.2,286047005.1,N
1460186875.9,286047005.2,N
1460186895.7,286047005.7,Y
1460186915.6,286047002.1,P
1460186935.4,286047001.9,P
1460186955.2,286047003.7,P
1460186975.1,286047003.3,Y
1460186976.0,286047003.3,P
1460186995.8,286047002.9,P
1460187015.6,286047008.9,P
1460187035.5,286047007.7,N
1460187055.3,286047010.9,Y
1460187075.1,286047009.4,P
1460187095.9,286047012.2,P
1460187115.7,286047010.6,P
1460187135.5,286047010.0,Y
1460187155.4,286047000.4,P
1460187175.2,286046996.9,N
1460187195.0,286046997.6,N
1460187195.9,286046997.6,N
1460187215.8,286046997.1,N
1460187235.6,286046998.0,N
1460187255.4,286046992.5,N
1460187275.3,286046988.7,N
1460187295.1,286046985.7,N
1460187296.0,286046985.7,N
1460187315.8,286046984.0,N
1460187335.7,286046984.3,N
1460187355.5,286046982.9,N
1460187375.3,286046983.1,N
1460187395.2,286046981.9,N
1460187415.9,286046980.3,N
1460187435.7,286046975.8,N
1460187455.6,286046975.9,N
1460187475.4,286046976.0,N
1460187495.2,286046977.4,N
1460187515.0,286046980.2,N
1460187516.0,286046980.2,N
1460187535.8,286046983.4,N
1460187555.6,286046977.3,N
1460187575.5,286046977.9,N
1460187595.3,286046978.4,N
1460187615.1,286046975.9,N
1460187635.8,286046976.7,N
1460187655.7,286046983.2,N
1460187675.5,286046986.4,N
1460187695.3,286046984.7,N
1460187715.2,286046983.5,N
1460187735.9,286046986.1,N
1460187755.7,286046982.1,N
1460187775.6,286046984.5,N
1460187795.4,286046985.8,N
1460187815.2,286046989.6,N
1460187835.1,286046985.4,Y
1460187836.0,286046985.4,P
1460187855.8,286047002.2,N
1460187875.6,286046998.4,N
1460187895.5,286046993.7,N
1460187915.3,286046994.4,N
1460187935.1,286046994.0,N
1460187955.9,286046996.2,N
1460187975.7,286046996.4,N
1460187995.5,286046992.0,N
1460188015.3,286046994.7,N
1460188035.2,286046997.0,N
1460188055.0,286046997.2,N
1460188055.9,286046997.2,N
1460188075.7,286046999.4,N
1460188095.6,286046997.4,N
1460188115.4,286046997.5,N
1460188135.2,286046997.5,N
1460188155.1,286046995.0,N
1460188156.0,286046995.0,N
1460188175.8,286046998.7,N
1460188195.6,286047001.0,N
1460188215.5,286046999.8,N
1460188235.3,286047002.7,N
1460188255.1,286047005.9,N
1460188275.9,286047002.2,N
1460188295.7,286047005.7,N
1460188315.5,286047006.4,N
1460188335.3,286047008.7,N
1460188355.2,286047006.3,N
1460188375.0,286047008.3,N
1460188375.9,286047008.3,N
1460188395.7,286047011.0,N
1460188415.6,286047011.5,N
1460188435.4,286047012.8,N
1460188455.2,286047015.1,N
1460188475.1,286047016.2,N
1460188476.0,286047016.2,N
1460188495.8,286047018.7,N
1460188515.6,286047018.4,N
1460188535.5,286047017.8,N
1460188555.3,286047015.8,N
1460188575.1,286047017.8,N
1460188595.9,286047019.6,N
1460188615.7,286047019.2,N
1460188635.5,286047019.8,N
1460188655.4,286047019.6,N
1460188675.2,286047018.9,N
1460188695.0,286047019.4,N
1460188695.9,286047019.4,N
1460188715.8,286047019.1,N
1460188735.6,286047017.5,N
1460188755.4,286047019.0,Y
1460188775.3,286047003.4,P
1460188795.1,286047002.6,N
1460188796.0,286047002.6,N
